EHI
1 1 1 1 1 0 0 0 0 0 0 0 0 0 0 0 0 0 1 1 1 2 3 5 7 6 5 6 8 6 3 3 3 4 3 2 1 0 0 0 1 1 1 0 1 1 1 0 0
1 2 3 3 2 0 0 0 0 0 0 0 0 0 0 0 0 0 0 0 0 1 2 5 7 6 4 5 6 6 4 3 3 3 3 1 0 0 0 1 2 2 1 0 0 1 0 0 0
4 6 8 6 2 0 0 0 0 0 0 0 0 0 0 0 0 0 0 0 0 0 1 4 7 6 4 3 4 4 4 4 3 2 1 0 0 0 0 1 1 1 1 0 0 1 0 0 1
8 10 10 6 2 0 0 0 0 0 0 0 0 0 0 0 0 1 1 1 0 0 1 4 7 7 4 4 4 3 4 3 2 1 0 0 1 1 1 0 0 0 0 1 2 2 1 1 2
8 10 8 3 1 0 0 0 1 1 1 1 0 0 1 1 1 2 2 1 0 0 1 5 8 8 6 5 5 4 4 3 2 1 0 0 1 2 2 1 0 1 1 2 4 4 3 3 3
8 7 4 1 0 0 0 1 2 2 2 1 0 0 1 2 3 4 3 2 1 0 1 4 7 8 7 6 4 3 4 4 3 1 0 1 2 3 3 2 2 2 3 4 4 4 3 3 3
9 5 1 0 0 0 0 1 2 3 3 2 1 1 1 3 4 6 6 3 1 0 1 2 4 5 5 4 4 4 4 4 4 3 3 3 3 3 3 4 4 4 4 5 5 4 4 4 5
7 3 0 0 0 0 0 1 2 3 4 3 2 3 3 3 5 8 8 5 1 0 0 0 1 1 2 2 3 5 5 5 5 5 5 4 3 2 3 5 6 6 6 8 8 7 6 7 9
4 3 1 0 0 0 1 2 3 4 5 4 4 5 5 5 7 10 10 6 2 0 0 0 0 0 0 0 2 4 5 4 4 3 3 2 1 1 2 5 6 7 8 10 11 9 8 10 11
3 2 1 1 1 1 1 2 3 4 5 6 6 7 6 7 10 13 13 9 4 2 1 1 1 1 0 0 1 2 2 2 1 1 0 0 0 0 1 3 5 5 7 8 8 7 7 8 9
2 2 1 1 1 1 0 1 3 4 5 7 8 8 8 8 11 13 14 11 8 6 4 3 3 3 2 2 3 3 2 0 0 0 0 0 0 0 1 2 3 3 4 4 3 2 2 3 4
1 1 0 0 0 0 0 1 2 4 6 7 9 9 9 9 10 11 11 10 9 8 6 5 5 5 4 5 5 4 2 0 0 0 0 0 1 2 3 3 3 2 2 2 1 0 0 0 1
0 0 0 0 0 0 2 3 4 6 8 9 9 9 9 9 9 9 8 7 7 7 6 7 7 6 4 4 4 4 2 1 1 1 1 2 3 4 4 4 3 3 2 2 2 0 0 0 0
0 0 0 0 0 0 3 6 8 9 10 11 10 9 8 7 7 7 6 6 6 6 7 8 9 7 4 3 3 3 2 2 3 3 3 3 4 5 5 4 3 3 3 2 1 0 0 0 0
0 0 0 0 0 0 3 7 10 12 12 11 10 9 8 7 7 7 7 7 8 9 10 11 10 7 5 4 3 3 3 3 5 6 5 4 4 4 3 3 2 2 2 2 1 0 0 0 0
0 0 0 0 0 1 3 7 10 13 15 13 10 9 10 10 10 10 11 10 9 10 11 12 9 6 4 4 3 3 3 4 6 6 6 5 4 4 2 1 1 1 1 1 1 0 1 1 0
0 0 0 0 0 1 3 5 10 15 17 15 12 11 11 11 11 12 12 11 9 8 8 8 7 5 3 3 3 3 3 4 6 6 6 4 4 3 3 2 1 1 1 2 2 1 2 1 1
1 0 0 0 0 1 1 4 10 17 20 19 17 15 12 10 9 9 8 8 7 6 5 4 4 4 3 3 3 3 3 3 5 6 5 4 3 3 2 2 2 2 2 3 2 2 3 2 1
1 0 0 1 1 1 1 4 11 18 21 22 20 17 11 7 6 5 5 5 5 5 5 4 3 3 3 3 2 2 1 1 3 4 4 4 4 3 2 2 2 2 2 2 2 2 2 2 2
1 0 0 1 2 1 2 4 10 15 19 22 22 17 11 7 5 4 4 4 4 5 6 5 4 3 3 2 1 1 0 0 1 2 3 4 4 3 2 1 1 1 1 1 1 1 1 1 1
0 0 0 1 2 2 1 3 6 11 15 19 21 17 12 9 6 4 4 5 5 6 7 7 6 5 4 3 2 1 1 0 0 1 2 4 4 3 3 2 1 0 0 0 0 0 1 0 0
0 0 0 0 1 1 1 2 4 8 13 18 20 17 13 10 8 6 5 7 8 8 9 9 8 7 7 7 6 4 2 1 0 1 3 3 4 3 3 2 1 0 1 1 0 0 0 0 1
0 0 0 0 0 0 0 1 3 7 11 16 18 17 13 11 10 8 6 8 10 12 12 12 12 11 11 10 8 7 5 3 2 3 4 4 5 4 2 1 0 1 2 2 2 1 1 1 2
0 0 0 0 0 0 0 1 2 5 9 14 16 15 12 11 10 9 8 9 11 14 16 16 16 16 14 12 9 7 7 6 6 6 6 6 5 4 2 1 1 2 3 4 4 4 3 3 3
0 0 0 0 0 0 0 0 1 3 7 11 12 12 11 10 11 11 11 11 12 14 17 18 18 17 17 14 10 7 7 8 8 8 7 6 4 2 1 2 3 3 3 4 5 5 4 3 3
0 0 0 0 0 0 0 0 0 3 7 9 10 9 9 11 13 13 12 13 14 15 17 19 19 18 17 15 10 6 6 7 8 9 8 6 3 1 1 4 5 4 3 3 3 2 2 2 2
0 0 0 0 0 0 0 0 1 5 8 9 8 7 9 12 14 14 13 13 14 15 17 20 21 19 18 17 12 7 6 7 8 9 8 6 4 1 2 4 6 5 4 3 2 1 1 1 1
0 0 0 0 0 0 0 0 3 6 8 8 7 7 9 12 14 15 15 14 14 14 16 19 20 19 18 17 15 11 8 8 9 8 6 5 4 3 2 4 6 6 5 4 3 1 0 0 0
0 0 0 0 0 0 0 1 4 7 8 7 5 5 7 10 13 15 14 12 12 13 15 16 17 18 18 17 15 13 11 10 9 7 4 3 4 3 4 5 6 6 5 4 2 1 0 0 0
0 0 0 0 0 0 0 1 4 7 7 6 4 3 5 9 12 13 12 9 10 13 15 16 16 18 19 17 15 13 12 11 8 5 4 3 3 4 5 6 6 5 4 4 2 0 0 0 0
Wind_Speed
9 7 4 1 1 2 2 2 4 6 6 7 9 10 9 6 4 5 3 8 10 8 5 6 7 8 9 9 10 11 11 11 11 11 11 10 10 10 10 10 10 10 10 10 10 10 10 10 10
7 6 2 0 2 3 1 3 7 8 9 10 11 11 9 7 6 7 5 8 10 8 5 6 8 9 9 9 9 10 11 11 11 10 10 10 9 10 9 9 9 9 9 9 10 10 10 10 9
6 4 1 1 1 3 2 4 8 9 9 8 7 6 6 6 6 5 6 11 9 7 5 6 9 9 9 10 9 10 11 11 10 10 10 9 9 9 9 8 8 8 8 8 9 9 9 9 9
2 1 1 2 1 2 4 5 8 9 8 8 8 6 5 5 5 8 12 12 10 7 5 6 9 8 9 11 10 10 11 10 10 9 9 8 8 8 7 7 7 7 8 8 8 8 8 8 8
1 1 2 1 1 2 4 5 8 9 6 8 9 8 5 4 10 13 13 11 10 7 5 5 9 9 11 12 11 10 10 10 9 8 8 7 7 7 6 6 6 6 7 7 8 8 8 8 8
1 2 2 1 2 3 3 7 11 11 11 10 9 8 4 5 11 11 11 10 9 8 5 5 9 10 11 11 11 10 10 9 9 8 7 6 6 6 5 5 4 4 5 7 8 9 9 9 9
1 2 1 1 2 4 4 5 9 9 9 7 8 7 4 5 8 10 10 9 8 8 6 4 4 6 9 10 10 9 9 9 8 7 6 5 5 5 4 4 3 3 4 6 7 8 9 9 9
3 2 1 1 3 3 4 5 7 10 8 8 7 7 6 6 8 10 9 9 8 6 5 4 3 3 3 4 8 8 8 7 7 6 6 5 4 4 4 3 3 3 4 5 6 7 8 8 8
2 2 1 2 4 3 4 8 6 8 8 6 6 7 9 11 11 10 8 7 6 6 4 4 3 2 2 3 5 5 6 6 5 4 4 3 1 1 1 3 3 3 3 4 5 5 6 6 7
3 2 4 3 4 5 5 7 5 7 9 8 9 9 11 11 11 11 9 8 7 6 4 4 3 3 3 3 2 1 2 2 2 1 1 1 1 0 1 2 3 2 3 3 4 4 4 3 2
4 4 1 1 2 5 6 4 4 10 6 9 13 12 10 10 9 9 9 8 7 7 6 4 4 3 3 2 3 1 1 1 1 1 1 2 1 1 1 0 0 0 0 1 1 1 1 1 2
3 2 3 2 4 5 4 4 5 7 8 12 14 13 10 10 9 9 9 7 7 7 6 5 4 4 3 3 2 2 2 1 1 1 1 2 1 1 1 1 0 0 0 1 0 1 1 1 1
2 2 2 4 6 6 5 4 6 7 11 14 13 12 10 10 8 7 8 7 7 6 5 5 5 4 3 3 2 3 2 2 2 1 1 2 2 1 1 0 0 0 0 1 1 1 1 1 1
2 1 1 2 4 6 7 4 5 7 11 13 12 9 8 9 9 8 7 7 6 6 5 4 5 4 4 3 2 2 1 2 2 2 2 2 2 1 1 1 1 0 0 0 1 1 1 1 1
2 2 2 1 2 3 7 4 5 10 11 11 11 9 9 8 9 9 8 7 6 6 4 4 5 4 4 3 2 2 2 2 2 1 1 2 2 2 1 1 0 0 0 0 1 1 1 1 0
4 3 2 2 2 3 7 4 6 10 11 10 10 10 9 7 8 8 8 7 6 5 5 4 5 4 3 3 2 2 2 2 2 1 1 1 2 2 2 1 0 0 1 1 1 1 1 1 1
4 1 2 4 2 3 5 4 7 8 11 9 9 9 9 8 7 7 8 7 6 6 5 4 4 4 3 3 2 2 2 2 2 1 1 1 2 2 2 1 1 1 1 1 1 1 1 1 0
2 2 3 3 2 3 4 3 7 8 10 9 8 8 8 8 7 7 8 8 7 6 4 4 4 3 3 3 2 2 2 2 1 2 2 2 1 2 2 1 1 1 2 2 1 1 1 1 1
4 4 5 5 2 3 4 3 5 7 8 9 8 8 8 8 7 7 8 8 7 5 4 4 4 3 2 2 2 2 1 1 1 1 1 2 1 2 2 2 2 2 2 1 1 1 1 1 1
4 4 4 3 1 3 4 2 1 5 8 10 11 10 10 8 6 7 7 7 7 6 4 4 4 3 3 2 2 2 2 1 1 1 1 1 2 1 2 2 1 1 1 2 2 1 1 1 1
4 6 6 4 2 3 5 2 0 2 3 4 6 8 9 11 10 8 7 7 7 6 6 5 4 4 3 2 2 2 2 2 2 1 1 1 1 2 2 2 2 1 1 1 1 1 1 0 1
5 6 6 6 3 1 3 2 5 4 3 5 6 7 8 9 9 8 8 8 8 8 6 5 5 4 3 3 3 4 3 2 1 1 0 1 1 1 1 1 1 1 1 1 1 1 1 1 0
5 4 3 4 4 2 0 3 5 2 4 6 7 8 8 9 11 11 10 10 9 7 6 5 4 4 3 3 4 3 2 1 1 1 1 1 1 1 1 1 1 1 1 1 1 1 1 1 1
3 3 4 4 4 1 3 3 4 5 8 8 7 7 8 9 10 9 9 8 7 6 6 5 5 4 3 3 3 4 3 3 2 2 1 0 0 1 1 1 1 1 1 1 1 1 1 1 1
3 6 4 5 4 3 1 3 6 6 8 10 10 8 7 8 8 8 8 8 8 8 7 6 6 4 4 4 3 3 3 4 4 2 2 1 0 0 1 0 0 0 1 1 1 1 1 0 1
2 8 7 4 3 3 1 2 5 4 5 6 7 7 8 8 8 8 9 8 8 8 8 7 6 5 4 4 3 2 3 2 2 2 2 2 1 1 0 0 1 1 1 1 1 1 0 0 0
2 2 7 7 1 1 1 2 4 2 4 5 7 8 8 9 9 8 8 8 7 7 7 8 7 5 4 4 3 2 2 2 2 2 2 1 1 1 1 1 1 1 1 1 1 1 0 0 0
5 5 5 5 4 1 2 2 4 4 5 5 6 7 8 8 8 7 7 7 7 6 6 6 6 6 4 4 3 3 2 2 2 2 2 2 1 1 1 1 1 1 1 1 1 1 1 1 1
1 3 5 4 5 6 2 6 7 9 8 8 8 8 8 7 7 6 6 6 6 6 6 5 5 5 4 4 3 3 2 2 2 2 2 1 1 1 1 1 1 1 1 1 1 0 0 1 1
4 5 6 5 2 4 4 7 4 7 7 7 7 7 7 7 7 6 6 6 6 6 6 6 5 5 5 4 4 3 3 3 2 2 1 1 1 1 1 1 1 0 0 0 1 1 0 0 0
Wind_Direction
168 162 161 191 35 46 46 65 94 75 66 68 77 80 81 66 95 128 161 142 139 143 145 135 128 126 124 123 124 127 124 121 120 121 125 129 132 135 136 137 140 145 148 152 155 156 156 155 153
164 168 175 44 64 72 37 85 94 92 110 107 83 81 77 71 85 114 131 144 140 139 139 128 125 127 126 125 125 129 129 125 122 122 125 130 135 138 140 142 144 149 152 156 159 160 162 161 160
178 192 173 57 89 141 128 111 111 103 97 96 88 65 69 104 114 131 145 141 130 129 131 131 123 128 131 129 129 132 129 128 125 124 124 128 133 140 145 148 151 155 160 162 163 164 164 166 169
170 167 39 56 96 163 134 129 113 102 82 78 91 71 62 99 118 131 134 135 129 130 135 134 124 128 138 138 132 133 130 130 128 126 127 131 134 138 146 154 159 163 166 168 169 171 172 172 177
143 83 40 16 96 124 118 121 111 99 88 90 93 96 81 71 109 123 134 136 133 134 138 137 127 119 126 133 133 131 131 131 129 129 130 133 135 137 144 152 160 166 172 176 178 180 180 178 179
73 69 50 13 90 103 96 104 98 98 106 108 104 105 97 111 121 131 135 134 134 137 138 138 135 126 123 128 134 137 136 134 132 130 131 134 137 139 146 151 153 165 180 189 189 189 189 186 187
129 94 230 201 98 95 114 112 111 117 119 121 124 103 116 128 134 131 128 130 133 135 134 130 140 136 135 137 139 142 141 139 137 137 139 141 145 150 157 155 165 182 194 192 192 194 195 191 191
162 104 285 180 117 117 120 98 112 120 114 125 118 122 153 163 136 122 118 121 127 128 134 136 127 127 134 140 144 147 148 145 143 146 150 155 154 157 158 163 185 204 189 187 190 189 190 192 192
144 98 227 198 143 145 119 100 88 87 101 102 95 124 146 139 126 121 115 112 122 126 134 138 134 131 141 149 155 153 155 151 148 148 150 153 137 145 162 185 201 210 185 180 179 179 182 191 196
142 154 213 196 157 148 125 115 119 95 92 88 91 101 121 126 127 132 135 134 137 143 150 144 144 143 140 157 138 135 140 134 131 105 104 99 104 171 165 196 210 202 169 160 164 173 184 185 173
170 185 227 77 109 123 116 113 107 118 116 139 138 139 136 130 129 134 140 144 147 149 145 146 148 141 137 122 115 104 98 104 103 110 111 95 75 44 28 44 293 319 177 122 138 152 147 151 160
124 203 188 144 118 111 123 122 109 120 147 145 141 143 138 136 140 143 145 144 141 143 144 143 137 127 123 111 114 117 113 113 105 115 113 105 90 67 58 76 70 40 51 97 98 93 130 150 174
130 235 206 161 134 128 115 121 122 123 134 134 134 135 138 141 145 145 143 142 140 140 146 150 139 129 122 108 111 110 107 115 118 103 96 105 109 102 85 70 70 18 105 148 137 119 129 155 194
205 206 234 135 133 137 128 126 109 140 138 134 134 136 139 147 147 141 140 143 145 145 148 141 133 130 120 116 113 111 111 103 95 94 101 114 112 102 94 75 47 353 278 188 144 156 143 149 163
48 50 11 113 125 137 112 88 142 149 138 135 135 136 135 133 133 136 141 142 144 142 139 138 135 125 124 129 132 119 123 107 102 106 95 103 104 112 116 103 61 323 41 92 107 96 90 93 118
24 42 360 276 156 149 116 160 173 153 140 140 137 137 134 130 134 138 133 127 127 129 127 130 131 122 124 126 132 121 115 117 114 105 90 90 96 111 114 102 71 358 57 70 102 99 97 75 92
21 350 278 289 214 149 122 169 176 160 143 145 144 144 140 135 137 139 139 136 132 131 134 126 119 126 125 111 106 101 95 108 110 97 83 71 70 85 96 87 54 57 66 62 98 92 117 117 118
222 255 269 258 250 112 122 164 159 157 145 148 148 147 143 146 155 151 147 142 136 130 128 129 120 118 114 100 88 77 72 77 86 92 83 76 67 68 78 73 41 62 69 52 44 74 78 126 175
190 235 254 258 205 113 132 151 164 162 153 156 158 155 154 158 158 148 146 142 133 128 122 133 126 125 115 107 109 105 103 93 72 74 86 89 86 82 75 62 52 64 81 89 75 91 78 37 80
206 227 251 298 181 129 126 114 173 167 170 170 167 164 162 158 152 153 150 144 143 149 147 144 144 141 138 145 149 140 137 131 129 62 51 64 74 76 84 81 76 69 80 63 50 66 85 26 68
243 202 201 199 92 77 109 39 271 203 140 148 161 167 166 164 163 162 159 157 157 163 165 162 164 154 154 141 109 92 66 52 52 41 51 51 82 85 75 83 94 87 96 94 67 76 113 142 337
245 221 189 180 140 209 142 179 252 183 171 166 167 168 176 169 164 164 164 165 171 176 172 163 162 156 155 142 130 132 136 145 183 162 116 47 57 71 77 81 88 96 94 88 62 70 89 119 332
211 205 174 172 142 112 23 132 269 165 191 197 182 175 176 171 168 171 175 175 174 173 169 164 155 149 147 141 145 146 145 161 135 107 93 46 21 36 64 76 80 89 100 114 67 59 77 101 125
179 73 41 55 72 62 242 146 256 214 202 188 180 171 165 165 166 172 174 169 167 165 162 159 151 154 152 144 140 147 147 141 122 121 129 104 4 352 1 78 73 85 99 116 125 106 96 95 103
93 84 34 5 14 260 226 143 247 234 192 181 176 173 164 156 158 163 163 168 168 166 166 165 158 163 162 151 149 154 150 145 148 158 157 156 137 325 302 30 60 66 112 124 121 111 100 96 107
169 131 153 191 219 273 356 214 257 241 175 162 162 165 161 155 166 171 168 168 167 168 168 166 164 165 162 160 162 156 148 150 157 162 160 169 181 206 218 86 72 66 76 88 94 96 148 103 144
140 174 166 137 138 100 289 293 316 47 133 151 160 160 162 165 173 172 166 163 161 162 165 164 160 155 156 158 145 139 146 144 151 152 141 144 147 128 85 83 70 53 63 71 87 73 6 35 252
154 150 89 106 138 198 299 241 221 213 178 171 166 165 170 170 168 161 159 156 156 159 157 156 155 158 152 139 140 138 143 145 146 130 122 117 117 106 90 73 71 67 66 65 85 73 28 47 341
95 76 103 114 142 147 209 261 217 189 182 178 176 166 165 165 162 152 148 148 146 141 142 148 153 143 139 144 138 128 123 121 123 125 129 136 133 129 120 105 95 86 78 85 94 62 56 71 0
149 161 141 140 201 157 162 259 243 180 174 161 153 145 138 141 147 141 142 141 139 140 140 144 147 145 150 145 134 130 121 110 105 108 118 132 146 158 160 151 140 132 50 89 153 235 291 190 270